Theta_e
296 294 293 293 293 292 292 291 293 291 291 290 290 289 288 287 287 287 286 284 285 285
296 295 294 294 294 293 293 292 291 291 290 290 289 288 287 286 286 285 285 285 286 286
295 295 295 294 293 293 292 292 290 290 289 289 289 288 286 284 284 284 284 285 285 285
295 295 294 293 293 292 292 291 290 290 289 289 288 287 285 283 283 283 283 283 283 284
294 294 293 292 292 292 290 291 290 290 290 289 288 287 284 283 282 282 281 282 283 284
293 292 292 292 292 292 291 290 290 290 289 288 288 285 284 283 282 282 282 283 284 283
292 292 292 292 291 291 291 290 289 289 288 288 287 285 284 283 282 282 283 284 284 284
292 292 292 291 291 291 290 290 289 288 288 288 287 285 284 282 282 282 282 283 283 284
291 291 291 291 290 290 289 289 288 288 287 286 286 286 286 283 282 283 282 281 282 283
291 290 290 290 289 289 288 288 287 287 287 286 285 286 284 284 282 282 282 281 282 282
290 289 290 289 289 288 288 287 287 286 287 285 285 285 284 283 281 281 281 281 282 282
290 289 289 288 288 288 287 287 286 286 286 284 283 285 284 282 280 280 279 280 281 282
290 289 288 288 287 287 287 286 285 284 285 285 282 284 284 282 280 278 278 279 280 282
290 289 288 288 286 285 284 284 283 282 283 282 282 281 283 283 280 279 278 278 280 279
Wind_Speed
7 5 6 7 7 6 7 8 8 9 8 8 9 8 7 8 8 8 7 7 9 7
6 7 6 7 7 7 7 9 10 8 8 9 8 7 7 7 8 10 9 10 9 9
7 8 7 7 8 9 9 9 9 9 9 9 8 7 7 7 11 12 10 10 11 11
7 8 8 8 9 9 9 10 10 10 10 10 10 10 5 10 14 14 14 14 13 12
9 9 9 9 10 9 10 10 10 11 11 11 12 11 9 13 16 15 16 14 13 11
9 9 9 10 10 10 10 10 10 11 11 12 12 9 11 13 15 15 15 14 12 11
8 9 9 10 10 10 10 10 11 11 11 11 13 10 12 15 15 15 13 13 11 12
9 9 10 10 10 10 10 10 10 11 10 9 8 9 14 16 16 15 13 12 12 10
10 11 11 10 11 11 10 10 10 10 11 10 8 16 24 24 16 14 12 13 11 8
11 11 11 12 12 12 11 10 11 12 11 11 8 22 29 30 14 15 14 13 10 9
11 11 11 12 12 12 12 11 12 13 13 14 12 27 31 34 18 15 17 16 14 13
11 11 11 12 12 12 12 12 13 14 15 17 17 28 31 29 18 17 19 16 13 13
10 10 11 10 11 11 11 12 12 14 14 19 17 24 30 28 14 17 15 14 13 19
9 8 10 9 11 12 12 12 13 14 13 16 19 20 31 33 17 14 15 13 11 12
Wind_Direction
356 354 347 345 334 338 339 343 338 339 326 331 324 331 329 318 311 329 313 319 314 301
355 351 343 339 342 342 344 333 345 330 335 328 326 327 320 315 341 332 337 318 304 290
357 352 350 342 349 350 342 346 334 337 334 323 325 327 325 360 339 331 325 313 304 295
3 352 352 353 356 349 345 344 339 339 330 332 339 328 9 357 334 319 317 310 300 294
3 354 351 359 354 349 352 342 342 336 336 341 336 334 12 348 328 321 314 309 304 297
2 351 0 359 352 354 349 343 340 342 341 340 340 19 357 336 328 321 314 307 301 296
2 350 9 355 349 357 346 344 346 346 338 344 341 15 347 338 330 324 315 315 320 314
5 356 8 354 359 355 348 348 344 338 337 340 350 4 349 344 334 325 327 327 320 311
5 6 5 356 2 354 345 338 338 344 338 344 6 357 357 352 332 330 332 329 325 310
9 8 6 3 357 351 346 341 348 345 345 353 20 10 3 353 340 332 334 335 320 321
12 11 8 1 358 353 349 356 352 349 355 3 1 12 3 356 343 337 342 338 330 320
15 14 8 3 4 356 356 359 359 353 360 1 357 6 0 354 343 341 342 335 331 333
18 24 13 6 12 0 359 3 358 353 360 3 355 355 355 354 341 341 340 335 334 351
27 35 23 13 20 8 2 360 360 357 358 2 354 350 350 351 345 348 341 342 347 356